User: anonymous   Login
Location: ?????
(30.2541°N, 31.0910°E)
Time: 09:40:28
(UTC+00:00)
Language:

Cosmos 1633 Rocket - Orbit

View from above orbital plane
View from above orbital plane
View from above satellite
View from above satellite

Ground track
Ground track

The orbit data is extracted from the following two-line orbital elements,

1 15593U 85020B   23331.76564096  .00000952  00000-0  10815-3 0  9997
2 15593  82.5393 218.6349 0011410 172.2839 187.8555 14.85229477 72509
Epoch (UTC): 27 November 2023 18:22:31
Eccentricity: 0.0011410
inclination: 82.5393°
perigee height: 605 km
apogee height: 621 km
right ascension of ascending node: 218.6349°
argument of perigee: 172.2839°
revolutions per day: 14.85229477
mean anomaly at epoch: 187.8555°
orbit number at epoch: 7250

The dashed part of the orbit path shows where the satellite is in the earth's shadow,  

DLR